When you browse on this site, cookies collect data to enhance your experience and personalize the content and advertising you see.
Visit our Privacy Policy to learn more. By continuing to use the site, you agree to this use of cookies and data.
  • In Hungary
  • List of Countries
  • For 7 days
  • Water Temperature
  • Satellite Maps
  • Weather Map
  • News
  • Weather Widgets
  • user-avatar
    Login

    Hourly Weather Somoto

    Today, 20 January, Sunday

    Time Temperature Precipitation Wind Pressure Humidity
    00:00 +19°C° 0 mm 1 mps 698 mmHg 95%
    01:00 +19°C° 0 mm 1 mps 698 mmHg 96%
    02:00 +19°C° 0 mm 1 mps 697 mmHg 96%
    03:00 +18°C° 0 mm 1 mps 697 mmHg 96%
    04:00 +18°C° 0 mm 1 mps 698 mmHg 96%
    05:00 +19°C° 0 mm 1 mps 698 mmHg 97%
    06:00 +19°C° 0 mm 1 mps 698 mmHg 97%
    07:00 +20°C° 0 mm 2 mps 699 mmHg 86%
    08:00 +23°C° 0 mm 2 mps 699 mmHg 74%
    09:00 +25°C° 0 mm 3 mps 700 mmHg 63%
    10:00 +27°C° 0 mm 4 mps 700 mmHg 56%
    11:00 +29°C° 0 mm 4 mps 700 mmHg 48%
    12:00 +32°C° 0 mm 5 mps 699 mmHg 41%
    13:00 +32°C° 0 mm 5 mps 699 mmHg 42%
    14:00 +32°C° 0 mm 5 mps 699 mmHg 42%
    15:00 +32°C° 0 mm 5 mps 698 mmHg 42%
    16:00 +29°C° 0 mm 5 mps 698 mmHg 50%
    17:00 +27°C° 0 mm 4 mps 698 mmHg 58%
    18:00 +25°C° 0 mm 4 mps 698 mmHg 66%
    19:00 +23°C° 0 mm 4 mps 699 mmHg 71%
    20:00 +22°C° 0 mm 4 mps 699 mmHg 76%
    21:00 +21°C° 0 mm 4 mps 699 mmHg 81%
    22:00 +21°C° 0 mm 4 mps 699 mmHg 83%
    23:00 +20°C° 0 mm 3 mps 699 mmHg 85%

    Tomorrow, 21 January, Monday

    Time Temperature Precipitation Wind Pressure Humidity
    00:00 +19°C° 0 mm 3 mps 699 mmHg 87%
    01:00 +19°C° 0 mm 3 mps 699 mmHg 88%
    02:00 +19°C° 0 mm 3 mps 699 mmHg 89%
    03:00 +19°C° 0 mm 3 mps 698 mmHg 90%
    04:00 +19°C° 0 mm 3 mps 698 mmHg 90%
    05:00 +19°C° 0 mm 4 mps 699 mmHg 89%
    06:00 +19°C° 0 mm 4 mps 699 mmHg 88%
    07:00 +20°C° 0 mm 4 mps 699 mmHg 82%
    08:00 +22°C° 0 mm 5 mps 700 mmHg 76%
    09:00 +23°C° 0 mm 6 mps 701 mmHg 70%
    10:00 +24°C° 0 mm 6 mps 700 mmHg 65%
    11:00 +26°C° 0 mm 6 mps 700 mmHg 61%
    12:00 +27°C° 0 mm 6 mps 700 mmHg 56%
    13:00 +28°C° 0 mm 6 mps 699 mmHg 54%
    14:00 +28°C° 0 mm 6 mps 699 mmHg 53%
    15:00 +28°C° 0 mm 6 mps 698 mmHg 51%
    16:00 +27°C° 0 mm 5 mps 698 mmHg 58%
    17:00 +25°C° 0 mm 4 mps 698 mmHg 65%
    18:00 +22°C° 0 mm 3 mps 699 mmHg 72%
    19:00 +22°C° 0 mm 3 mps 699 mmHg 77%
    20:00 +21°C° 0 mm 3 mps 699 mmHg 81%
    21:00 +20°C° 0 mm 4 mps 700 mmHg 86%
    22:00 +20°C° 0 mm 3 mps 700 mmHg 87%
    23:00 +20°C° 0 mm 3 mps 700 mmHg 87%

    Day after tomorrow, 22 January, Tuesday

    Time Temperature Precipitation Wind Pressure Humidity
    00:00 +19°C° 0 mm 3 mps 699 mmHg 88%
    01:00 +19°C° 0 mm 3 mps 699 mmHg 89%
    02:00 +19°C° 0 mm 3 mps 698 mmHg 90%
    03:00 +19°C° 0 mm 3 mps 698 mmHg 91%
    04:00 +19°C° 0 mm 3 mps 698 mmHg 91%
    05:00 +18°C° 0 mm 2 mps 698 mmHg 92%
    06:00 +18°C° 0 mm 2 mps 698 mmHg 92%
    07:00 +20°C° 0 mm 3 mps 699 mmHg 86%
    08:00 +21°C° 0 mm 3 mps 700 mmHg 80%
    09:00 +22°C° 0 mm 4 mps 700 mmHg 73%
    10:00 +23°C° 0 mm 4 mps 700 mmHg 67%
    11:00 +26°C° 0 mm 4 mps 700 mmHg 62%
    12:00 +27°C° 0 mm 5 mps 699 mmHg 56%
    13:00 +27°C° 0 mm 5 mps 698 mmHg 56%
    14:00 +27°C° 0 mm 5 mps 698 mmHg 56%
    15:00 +27°C° 0 mm 5 mps 697 mmHg 57%
    16:00 +26°C° 0 mm 4 mps 697 mmHg 64%
    17:00 +24°C° 0 mm 3 mps 697 mmHg 71%
    18:00 +23°C° 0 mm 2 mps 697 mmHg 79%
    19:00 +21°C° 0 mm 2 mps 698 mmHg 84%
    20:00 +20°C° 0 mm 2 mps 698 mmHg 89%
    21:00 +19°C° 0 mm 2 mps 699 mmHg 94%
    22:00 +19°C° 0 mm 2 mps 699 mmHg 95%
    23:00 +19°C° 0 mm 2 mps 698 mmHg 95%

    23 January, Wednesday

    Time Temperature Precipitation Wind Pressure Humidity
    00:00 +18°C° 0 mm 2 mps 698 mmHg 96%
    01:00 +19°C° 0 mm 2 mps 698 mmHg 95%
    02:00 +19°C° 0 mm 2 mps 698 mmHg 93%
    03:00 +19°C° 0 mm 2 mps 697 mmHg 91%
    04:00 +19°C° 0 mm 2 mps 697 mmHg 93%
    05:00 +18°C° 0 mm 2 mps 697 mmHg 94%
    06:00 +18°C° 0 mm 2 mps 698 mmHg 96%
    07:00 +20°C° 0 mm 2 mps 698 mmHg 87%
    08:00 +22°C° 0 mm 3 mps 699 mmHg 78%
    09:00 +25°C° 0 mm 3 mps 700 mmHg 69%
    10:00 +26°C° 0 mm 4 mps 699 mmHg 65%
    11:00 +27°C° 0 mm 4 mps 699 mmHg 60%
    12:00 +28°C° 0 mm 4 mps 698 mmHg 56%
    13:00 +29°C° 0 mm 4 mps 698 mmHg 52%
    14:00 +29°C° 0 mm 3 mps 697 mmHg 48%
    15:00 +30°C° 0 mm 3 mps 696 mmHg 45%
    16:00 +28°C° 0 mm 3 mps 696 mmHg 53%
    17:00 +26°C° 0 mm 2 mps 696 mmHg 61%
    18:00 +24°C° 0 mm 2 mps 696 mmHg 69%
    19:00 +23°C° 0 mm 2 mps 697 mmHg 76%
    20:00 +21°C° 0 mm 2 mps 697 mmHg 82%
    21:00 +20°C° 0 mm 2 mps 698 mmHg 88%
    22:00 +19°C° 0 mm 2 mps 698 mmHg 91%
    23:00 +19°C° 0 mm 2 mps 697 mmHg 93%

    24 January, Thursday

    Time Temperature Precipitation Wind Pressure Humidity
    00:00 +19°C° 0 mm 2 mps 697 mmHg 96%
    01:00 +18°C° 0 mm 2 mps 697 mmHg 96%
    02:00 +18°C° 0 mm 2 mps 697 mmHg 96%
    03:00 +18°C° 0 mm 2 mps 696 mmHg 97%
    04:00 +18°C° 0 mm 2 mps 697 mmHg 97%
    05:00 +18°C° 0 mm 2 mps 697 mmHg 97%
    06:00 +18°C° 0 mm 2 mps 697 mmHg 97%
    07:00 +20°C° 0 mm 2 mps 698 mmHg 87%
    08:00 +21°C° 0 mm 3 mps 699 mmHg 78%
    09:00 +24°C° 0 mm 3 mps 700 mmHg 68%
    10:00 +26°C° 0 mm 3 mps 699 mmHg 61%
    11:00 +28°C° 0 mm 4 mps 699 mmHg 53%
    12:00 +30°C° 0 mm 4 mps 699 mmHg 45%
    13:00 +30°C° 0 mm 4 mps 698 mmHg 43%
    14:00 +32°C° 0 mm 4 mps 698 mmHg 42%
    15:00 +32°C° 0 mm 4 mps 697 mmHg 41%
    16:00 +29°C° 0 mm 3 mps 697 mmHg 47%
    17:00 +27°C° 0 mm 3 mps 697 mmHg 53%
    18:00 +25°C° 0 mm 2 mps 697 mmHg 60%
    19:00 +24°C° 0 mm 2 mps 698 mmHg 66%
    20:00 +23°C° 0 mm 2 mps 698 mmHg 72%
    21:00 +21°C° 0 mm 2 mps 699 mmHg 79%
    22:00 +20°C° 0 mm 2 mps 699 mmHg 83%
    23:00 +20°C° 0 mm 2 mps 698 mmHg 87%

    25 January, Friday

    Time Temperature Precipitation Wind Pressure Humidity
    00:00 +19°C° 0 mm 2 mps 698 mmHg 91%
    01:00 +19°C° 0 mm 2 mps 698 mmHg 92%
    02:00 +19°C° 0 mm 2 mps 698 mmHg 93%
    03:00 +19°C° 0 mm 2 mps 697 mmHg 95%
    04:00 +19°C° 0 mm 2 mps 698 mmHg 94%
    05:00 +19°C° 0 mm 2 mps 698 mmHg 94%
    06:00 +19°C° 0 mm 2 mps 698 mmHg 93%
    07:00 +21°C° 0 mm 3 mps 699 mmHg 85%
    08:00 +22°C° 0 mm 3 mps 700 mmHg 76%
    09:00 +25°C° 0 mm 4 mps 700 mmHg 68%
    10:00 +26°C° 0 mm 4 mps 700 mmHg 61%
    11:00 +28°C° 0 mm 4 mps 700 mmHg 54%
    12:00 +30°C° 0 mm 4 mps 700 mmHg 47%
    13:00 +30°C° 0 mm 4 mps 699 mmHg 46%
    14:00 +32°C° 0 mm 4 mps 698 mmHg 44%
    15:00 +32°C° 0 mm 4 mps 698 mmHg 42%
    16:00 +29°C° 0 mm 4 mps 698 mmHg 49%
    17:00 +27°C° 0 mm 3 mps 698 mmHg 55%
    18:00 +26°C° 0 mm 3 mps 699 mmHg 61%
    19:00 +24°C° 0.1 mm 3 mps 699 mmHg 69%
    20:00 +22°C° 0.1 mm 3 mps 699 mmHg 77%
    21:00 +21°C° 0.1 mm 2 mps 700 mmHg 85%
    22:00 +20°C° 0 mm 3 mps 700 mmHg 86%
    23:00 +20°C° 0 mm 3 mps 699 mmHg 88%
    Show more